Home > Weather > Howell > Past weeks

Flag for USA Weather for the Past 2 Weeks in Howell, Michigan, USA

Now
61 °F

Scattered clouds.


Feels Like: 61 °F
Forecast: 42 / 64 °F
Wind: 7 mph from West

Location: Livingston County Airport

Current Time: May 3, 2016 at 2:20:45 PM

Latest Report: May 3, 2016 at 1:54 PM


Visibility: 10 mi

Pressure: 29.86 "Hg

Humidity: 36%

Dew Point: 34 °F

Location of HowellLocation

Historic Weather in Howell — Graph

°F

Howell Temperature Yesterday

Maximum temperature yesterday: 54 °F (at 5:54 PM)
Minimum temperature yesterday: 42 °F (at 7:34 AM)
Average temperature yesterday: 47 °F

High & Low Weather Summary for the Past Weeks

 TemperatureHumidityPressure
High80 °F (Apr 18, 4:34 PM)100% (Apr 22, 1:14 AM)30.34 "Hg (Apr 22, 1:14 AM)
Low34 °F (Apr 27, 6:35 AM)22% (Apr 19, 4:54 PM)29.63 "Hg (Apr 26, 2:14 AM)
Average51 °F65%30.02 "Hg
* Reported Apr 18 1:14 PM — May 3 1:14 PM, Howell, Weather by CustomWeather, © 2016

Note: Actual official high and low records may vary slightly from our data, if they occured in-between our weather recording intervals... More about our weather records

Advertising

Howell Weather History for the Previous 24 Hours

Scroll right to see more
 ConditionsComfort  
Time TempWeatherWind HumidityBarometerVisibility
1:14 PM
Tue, May 3
61 °FScattered clouds.7 mph39%29.87 "Hg10 mi
12:54 PM61 °FSunny.9 mph37%29.88 "Hg10 mi
12:34 PM60 °FSunny.3 mph36%29.89 "Hg10 mi
12:14 PM60 °FSunny.7 mph35%29.89 "Hg10 mi
11:54 AM60 °FSunny.5 mph36%29.90 "Hg10 mi
11:34 AM59 °FSunny.No wind36%29.91 "Hg10 mi
11:14 AM58 °FSunny.6 mph41%29.91 "Hg10 mi
10:54 AM58 °FSunny.No wind40%29.91 "Hg10 mi
10:35 AM57 °FSunny.No wind38%29.91 "Hg10 mi
10:14 AM56 °FSunny.No wind43%29.92 "Hg10 mi
9:54 AM56 °FSunny.No wind46%29.92 "Hg10 mi
9:35 AM55 °FSunny.No wind47%29.93 "Hg10 mi
9:14 AM54 °FSunny.No wind62%29.93 "Hg10 mi
8:54 AM51 °FSunny.No wind79%29.93 "Hg10 mi
8:14 AM46 °FSunny.No wind97%29.93 "Hg10 mi
7:54 AM44 °FSunny.No wind99%29.94 "Hg10 mi
7:35 AM42 °FSunny.No wind98%29.94 "Hg7 mi
6:54 AM38 °FFog.No wind98%29.93 "Hg4 mi
6:35 AM39 °FClear.No wind97%29.94 "Hg7 mi
6:14 AM38 °FFog.No wind97%29.94 "Hg5 mi
5:54 AM39 °FFog.No wind97%29.95 "Hg2 mi
5:35 AM39 °FClear.No wind96%29.95 "Hg7 mi
5:14 AM40 °FClear.No wind96%29.95 "Hg10 mi
4:54 AM42 °FPassing clouds.No wind95%29.95 "Hg10 mi
4:35 AM42 °FPassing clouds.No wind95%29.95 "Hg10 mi
4:14 AM42 °FOvercast.No wind95%29.95 "Hg10 mi
3:54 AM43 °FOvercast.No wind93%29.95 "Hg10 mi
3:35 AM42 °FOvercast.No wind92%29.95 "Hg10 mi
2:54 AM44 °FOvercast.No wind91%29.95 "Hg10 mi
2:34 AM45 °FOvercast.No wind90%29.95 "Hg10 mi
2:14 AM46 °FOvercast.No wind87%29.95 "Hg10 mi
1:34 AM48 °FOvercast.No wind84%29.96 "Hg10 mi
12:54 AM49 °FOvercast.No wind82%29.97 "Hg10 mi
12:34 AM49 °FOvercast.No wind81%29.97 "Hg10 mi
12:14 AM49 °FOvercast.No wind80%29.97 "Hg10 mi
11:55 PM
Mon, May 2
49 °FOvercast.3 mph80%29.97 "Hg10 mi
11:34 PM50 °FOvercast.No wind77%29.97 "Hg10 mi
10:55 PM50 °FOvercast.3 mph76%29.98 "Hg10 mi
10:34 PM50 °FOvercast.3 mph76%29.98 "Hg10 mi
10:14 PM51 °FOvercast.3 mph75%29.98 "Hg10 mi
9:34 PM51 °FOvercast.No wind75%29.99 "Hg10 mi
9:15 PM51 °FOvercast.No wind75%29.98 "Hg10 mi
8:34 PM52 °FOvercast.5 mph72%29.99 "Hg10 mi
8:15 PM53 °FOvercast.3 mph70%30.00 "Hg10 mi
7:54 PM53 °FOvercast.3 mph69%30.00 "Hg10 mi
7:34 PM53 °FMore clouds than sun.No wind64%29.99 "Hg10 mi
7:15 PM53 °FMostly cloudy.No wind64%29.99 "Hg10 mi
6:54 PM54 °FMostly cloudy.No wind64%29.99 "Hg10 mi
6:15 PM53 °FMostly cloudy.5 mph65%30.00 "Hg10 mi
5:54 PM54 °FCloudy.3 mph64%30.01 "Hg10 mi
5:34 PM53 °FCloudy.No wind65%30.01 "Hg10 mi
4:54 PM53 °FMore clouds than sun.No wind66%30.01 "Hg10 mi
4:34 PM53 °FCloudy.5 mph70%30.02 "Hg10 mi
4:15 PM52 °FMore clouds than sun.No wind74%30.02 "Hg10 mi
3:54 PM52 °FMore clouds than sun.5 mph75%30.03 "Hg10 mi
3:34 PM51 °FMore clouds than sun.5 mph75%30.03 "Hg10 mi
3:15 PM52 °FMore clouds than sun.5 mph75%30.03 "Hg10 mi
2:54 PM51 °FMore clouds than sun.5 mph78%30.03 "Hg10 mi
2:34 PM51 °FCloudy.6 mph78%30.02 "Hg10 mi
2:14 PM51 °FMostly cloudy.3 mph80%30.02 "Hg10 mi
Weather by CustomWeather, © 2016

See weather overviewHow to use our weather pages